Wind_Speed
21 26 26 24 18 12 12 15 11 23 30 33 27 26 30 27 25 17 18 18 8 4 7 7 13 8 10 8 4 4 3 5 4 6 10 12 13 15 20 20 20 20 27
24 23 24 27 26 23 17 17 19 22 23 24 22 22 22 22 19 20 18 19 14 7 8 8 15 12 10 9 6 6 2 3 6 8 10 14 11 14 16 18 21 24 22
28 26 24 25 26 23 24 23 21 21 19 18 19 19 18 16 18 19 20 23 14 10 4 4 15 16 10 7 6 8 9 5 9 9 10 13 10 13 13 17 18 20 21
31 29 26 24 26 24 24 24 20 18 18 18 16 13 14 16 14 17 24 24 15 10 8 6 10 12 11 7 7 7 6 8 11 10 13 13 13 13 15 16 16 17 17
37 33 29 27 24 22 22 23 21 18 19 21 16 19 21 14 14 16 17 19 13 14 10 9 12 12 11 9 6 6 4 6 7 10 12 14 14 14 15 15 14 16 16
41 38 35 30 27 20 21 20 18 18 19 20 20 23 16 10 9 14 19 15 11 15 13 9 10 13 11 11 8 6 6 9 10 11 10 13 18 18 15 14 18 16 14
43 39 36 29 22 16 19 19 17 18 21 23 23 21 13 9 7 14 26 25 20 13 17 15 13 15 14 12 13 12 9 9 10 11 11 13 14 16 17 18 16 11 12
44 40 35 32 27 21 21 22 23 24 25 26 21 16 12 8 8 9 13 23 17 18 16 18 17 19 15 12 13 12 11 11 9 8 8 9 14 17 16 11 9 12 15
42 43 37 33 30 28 25 27 28 26 24 22 17 13 11 11 12 11 11 10 17 23 22 21 19 19 17 17 18 14 12 11 8 10 9 10 9 8 8 9 10 11 10
37 40 41 38 35 32 27 26 25 25 19 15 13 9 6 13 18 16 14 15 15 17 19 14 20 19 19 20 18 19 17 17 13 12 9 9 9 8 5 5 10 12 13
35 33 34 37 35 29 28 23 27 18 14 12 14 9 8 12 22 15 11 10 12 15 15 15 15 13 13 14 18 16 14 14 15 15 13 11 10 9 11 14 15 16 13
32 29 28 31 27 25 23 24 18 19 17 15 18 13 13 16 19 15 14 14 22 24 22 20 16 17 15 17 12 10 11 12 15 16 17 17 18 17 19 20 20 17 17
32 28 27 27 22 19 18 12 18 19 14 19 18 18 15 13 13 13 12 15 15 18 22 20 18 19 17 15 17 16 17 18 17 17 18 20 21 21 23 24 21 20 18
28 26 26 24 21 22 18 20 21 15 12 5 5 5 9 12 5 6 9 11 13 16 18 23 22 21 22 23 21 22 21 21 23 22 24 26 24 28 27 26 28 26 25
31 31 32 29 26 29 25 19 17 22 16 10 11 7 1 6 8 9 12 12 12 11 19 17 18 20 22 25 24 23 23 21 23 25 24 25 29 32 32 35 37 37 38
36 36 32 30 33 29 22 15 16 18 17 17 15 14 12 13 9 13 12 9 10 11 13 13 23 24 24 22 23 27 25 26 29 28 26 30 38 39 40 40 42 43 43
37 40 38 37 34 31 23 15 20 21 18 17 25 27 25 22 21 20 18 19 15 16 17 15 15 16 19 23 23 22 23 23 18 24 28 30 33 37 42 45 49 50 50
39 45 45 43 39 37 24 14 22 25 22 27 28 32 32 33 28 27 23 26 23 26 24 22 26 24 22 19 17 18 20 22 29 34 36 37 37 39 43 46 49 50 53
41 44 49 46 46 44 34 25 19 21 33 40 45 45 37 39 34 28 27 27 30 30 28 33 37 30 29 27 26 26 29 33 40 41 44 44 47 44 47 51 54 58 60
41 44 44 46 50 49 47 40 36 46 35 39 48 41 42 36 38 33 31 30 29 34 38 33 30 27 32 34 36 45 40 45 51 53 50 50 49 46 46 50 53 56 61
43 45 48 48 49 52 55 52 49 42 43 36 32 39 38 38 32 33 36 35 42 41 32 30 31 31 34 40 44 47 50 51 48 49 59 53 49 50 53 55 57 61 64
50 49 49 52 56 53 53 54 53 46 40 40 36 32 33 33 33 38 43 44 38 38 39 43 46 48 46 49 52 59 62 64 63 61 67 61 66 70 68 68 68 62 64
52 52 56 53 55 57 57 57 54 46 37 33 28 33 37 37 39 45 48 49 54 50 47 46 49 55 56 56 57 60 64 69 69 71 74 72 72 71 75 72 72 68 63
38 51 55 54 60 62 63 65 61 58 48 43 35 42 40 43 51 54 55 59 52 50 52 56 54 56 62 66 68 70 72 77 79 82 83 81 81 85 84 80 78 71 63
35 36 39 48 60 61 64 67 68 67 64 56 51 54 58 58 56 54 49 48 50 54 57 57 60 65 68 72 74 79 84 86 86 88 90 91 84 86 83 74 72 66 62
36 39 41 40 43 45 53 63 71 72 67 58 53 55 58 60 59 53 53 57 59 61 63 67 66 69 73 77 79 80 85 86 88 90 85 85 77 75 74 71 72 69 70
Wind_Direction
259 251 250 249 249 257 258 232 252 273 275 280 292 278 284 298 303 294 300 315 287 281 288 312 199 200 183 185 157 34 341 328 307 306 352 2 7 5 9 21 22 22 32
261 256 255 252 258 271 257 251 253 269 280 286 290 292 294 294 298 288 290 302 281 259 287 279 203 200 200 207 225 271 307 287 321 314 328 338 356 351 12 7 15 7 18
254 256 258 257 261 267 266 266 268 279 279 282 286 289 297 297 292 274 278 302 257 250 245 213 203 201 212 226 265 265 269 275 303 317 322 332 334 341 346 1 352 0 5
249 251 252 254 255 260 266 268 273 276 273 274 270 276 284 296 288 267 269 282 238 227 232 220 210 201 205 228 247 274 276 278 296 311 302 305 309 318 334 335 343 351 2
247 248 252 255 254 258 264 269 271 267 265 266 265 279 290 280 278 276 258 240 231 228 242 241 227 222 210 211 236 289 261 280 279 298 306 297 296 299 309 324 332 347 2
245 247 254 256 256 256 261 257 257 257 263 274 286 291 279 277 257 228 214 223 223 223 228 229 239 215 214 238 263 271 280 289 293 288 282 284 292 300 309 314 337 347 1
241 245 248 248 246 244 257 252 256 264 265 278 282 284 273 245 229 220 212 205 220 219 239 248 238 224 236 256 262 278 291 290 295 303 281 259 280 291 294 307 328 342 345
237 239 242 242 244 244 252 266 269 273 269 276 279 263 246 219 185 173 220 220 211 210 226 233 244 241 248 262 272 263 275 288 295 316 317 283 268 289 302 321 343 328 331
235 238 238 240 245 254 261 269 269 271 274 270 250 238 217 189 182 175 166 233 246 237 236 237 239 246 254 269 290 265 269 267 281 303 308 300 288 317 320 320 335 345 341
235 235 240 243 250 253 260 265 263 259 263 243 226 188 176 191 183 195 196 222 212 239 242 229 236 246 259 266 273 266 269 269 275 298 293 298 298 294 308 310 312 328 327
236 235 240 244 248 252 254 256 253 250 232 203 197 171 175 186 192 204 213 236 232 241 247 251 248 252 257 247 254 259 262 283 292 285 277 283 282 290 297 295 296 305 316
236 236 234 237 244 242 245 244 245 225 198 187 184 193 190 170 192 205 223 248 258 253 256 259 250 263 256 258 273 274 266 276 280 287 282 285 289 290 298 298 301 294 299
229 228 227 224 226 218 216 224 211 204 194 193 193 186 184 188 199 225 254 262 265 270 260 254 253 248 255 258 249 264 269 272 280 287 293 292 288 290 286 291 280 279 278
223 217 216 211 202 198 202 211 210 197 164 130 63 216 235 217 239 281 290 284 277 257 264 257 265 269 267 267 271 276 276 280 285 293 296 297 288 291 287 282 278 270 270
209 204 204 200 198 195 191 206 210 197 210 225 183 168 213 238 287 308 321 279 283 277 259 261 260 263 266 266 269 271 276 283 281 287 287 287 286 283 279 275 278 280 280
203 200 197 192 190 197 191 208 219 215 213 229 233 265 270 289 280 300 290 283 288 298 294 259 248 253 258 260 267 269 267 271 279 287 290 288 280 274 272 276 277 274 274
215 202 203 197 196 194 210 215 221 237 237 248 236 255 266 262 264 273 274 286 278 292 295 286 263 259 267 271 274 280 281 280 290 300 305 297 304 294 287 285 281 276 275
215 205 209 208 208 209 209 204 224 225 256 268 261 269 273 274 267 265 262 268 269 281 274 278 301 282 285 274 266 276 300 284 297 303 301 311 295 293 289 280 282 285 285
220 214 213 216 213 214 203 197 216 241 258 275 274 260 262 267 266 269 271 263 274 278 270 287 288 270 267 264 265 294 292 292 294 302 304 305 305 292 279 281 280 278 279
220 216 207 215 219 219 215 213 216 239 251 256 253 249 252 253 264 267 275 268 266 274 279 275 271 277 277 272 280 288 289 295 299 302 302 301 294 290 290 281 283 285 278
226 222 216 216 221 223 222 224 228 243 251 255 256 241 245 261 259 260 252 265 278 274 267 273 274 277 275 280 286 290 292 294 295 297 299 295 292 294 293 294 301 296 286
229 225 222 222 226 229 228 224 233 240 252 256 253 255 253 251 254 257 265 261 260 270 277 280 281 284 286 287 284 291 293 294 294 294 296 294 294 295 293 297 300 298 289
228 232 227 228 234 234 235 234 237 242 247 246 245 238 244 251 253 251 255 256 265 275 279 280 286 290 292 290 285 290 291 294 290 291 295 295 296 294 297 297 298 299 290
231 234 233 231 233 239 244 242 240 244 248 258 252 243 245 252 253 255 262 269 275 275 279 289 291 290 288 289 291 290 289 292 289 292 296 295 294 296 296 297 299 296 290
234 241 246 244 236 238 243 247 248 253 253 259 259 258 258 260 260 266 272 274 276 274 278 283 288 287 288 291 288 289 289 291 290 291 291 290 295 296 297 298 297 293 289
252 261 256 255 250 253 250 249 253 256 260 262 260 255 257 262 264 267 265 270 275 276 280 285 282 282 282 285 285 288 290 294 295 295 293 293 295 294 295 297 297 294 292
Height
10973 10975 10978 10981 10982 10984 10985 10986 10983 10982 10984 10984 10983 10983 10982 10980 10979 10977 10978 10976 10974 10972 10970 10970 10969 10971 10972 10974 10974 10975 10974 10974 10974 10974 10972 10971 10970 10968 10965 10962 10959 10956 10953
10967 10969 10971 10974 10977 10978 10981 10982 10982 10981 10980 10979 10979 10977 10976 10977 10978 10975 10974 10972 10971 10970 10968 10967 10968 10970 10972 10973 10973 10973 10973 10974 10973 10973 10972 10971 10970 10968 10966 10963 10960 10958 10954
10960 10963 10965 10968 10970 10972 10974 10975 10975 10975 10974 10973 10973 10971 10972 10972 10970 10969 10968 10967 10967 10966 10966 10965 10966 10968 10970 10972 10973 10972 10972 10973 10972 10971 10971 10971 10970 10968 10966 10964 10962 10959 10957
10954 10956 10959 10961 10963 10965 10966 10968 10967 10968 10968 10968 10967 10967 10968 10968 10965 10963 10962 10963 10963 10963 10964 10965 10966 10967 10968 10970 10971 10970 10971 10972 10971 10969 10968 10968 10968 10967 10966 10964 10962 10960 10958
10946 10950 10953 10954 10957 10958 10960 10960 10961 10961 10961 10962 10962 10962 10963 10962 10958 10957 10958 10958 10960 10960 10961 10963 10963 10965 10966 10968 10969 10969 10969 10970 10969 10968 10967 10966 10966 10965 10965 10963 10961 10959 10957
10938 10942 10945 10948 10950 10952 10953 10954 10955 10955 10956 10956 10956 10957 10956 10954 10953 10954 10954 10955 10957 10958 10959 10960 10962 10963 10965 10966 10967 10967 10967 10968 10968 10967 10967 10965 10964 10963 10962 10960 10959 10958 10956
10929 10934 10937 10941 10942 10944 10946 10947 10948 10949 10950 10950 10951 10951 10949 10950 10949 10950 10950 10951 10953 10955 10958 10959 10960 10961 10963 10963 10965 10966 10966 10966 10965 10964 10964 10964 10963 10961 10960 10959 10959 10957 10955
10919 10925 10929 10934 10937 10938 10940 10942 10943 10944 10944 10945 10945 10944 10944 10945 10946 10946 10946 10949 10951 10952 10955 10957 10958 10959 10960 10960 10961 10962 10964 10964 10964 10963 10962 10961 10960 10959 10957 10956 10956 10955 10954
10911 10915 10921 10927 10931 10933 10934 10936 10938 10938 10939 10939 10939 10938 10939 10942 10944 10943 10945 10947 10947 10950 10952 10954 10954 10956 10957 10958 10959 10959 10960 10961 10960 10960 10960 10958 10957 10956 10956 10955 10954 10953 10952
10902 10907 10914 10919 10924 10927 10929 10931 10932 10931 10933 10935 10935 10934 10936 10937 10939 10941 10942 10943 10947 10948 10950 10951 10950 10951 10953 10954 10955 10956 10957 10957 10957 10957 10957 10956 10955 10954 10953 10953 10953 10952 10951
10894 10900 10906 10912 10916 10920 10922 10924 10924 10927 10929 10929 10930 10931 10933 10934 10936 10938 10940 10940 10944 10944 10945 10947 10948 10948 10948 10949 10952 10952 10953 10953 10954 10953 10954 10953 10953 10952 10951 10951 10950 10950 10950
10888 10893 10899 10904 10909 10913 10915 10918 10920 10923 10925 10924 10925 10928 10931 10931 10933 10934 10936 10938 10939 10940 10941 10943 10945 10945 10946 10948 10948 10948 10949 10949 10949 10949 10949 10949 10949 10949 10948 10948 10947 10947 10946
10881 10886 10892 10898 10904 10909 10913 10916 10919 10921 10922 10922 10921 10922 10926 10928 10929 10929 10930 10929 10930 10932 10935 10937 10939 10941 10942 10943 10944 10945 10945 10946 10946 10945 10944 10943 10943 10944 10943 10943 10942 10941 10940
10875 10881 10886 10894 10899 10905 10908 10911 10914 10915 10919 10920 10920 10922 10925 10926 10926 10925 10925 10925 10925 10926 10927 10930 10934 10936 10937 10938 10939 10940 10940 10940 10940 10940 10939 10939 10939 10939 10939 10939 10937 10937 10936
10867 10874 10881 10886 10891 10897 10899 10903 10904 10908 10912 10913 10915 10918 10920 10922 10922 10921 10920 10922 10922 10923 10924 10925 10928 10931 10932 10932 10933 10935 10935 10935 10935 10936 10935 10935 10934 10933 10933 10933 10932 10929 10928
10862 10870 10877 10882 10888 10893 10897 10899 10902 10904 10905 10908 10912 10914 10916 10915 10917 10920 10919 10918 10918 10919 10920 10921 10923 10925 10926 10928 10929 10930 10930 10929 10929 10929 10928 10927 10925 10924 10923 10922 10921 10919 10918
10859 10865 10871 10876 10881 10886 10890 10894 10898 10900 10901 10903 10904 10907 10909 10910 10911 10911 10913 10915 10914 10914 10915 10914 10915 10917 10918 10919 10920 10922 10921 10921 10921 10921 10920 10919 10917 10916 10915 10913 10911 10910 10908
10850 10857 10862 10868 10874 10880 10884 10889 10891 10895 10895 10896 10897 10897 10900 10901 10903 10905 10904 10904 10906 10907 10908 10908 10908 10909 10910 10911 10911 10912 10913 10913 10913 10912 10910 10908 10906 10904 10903 10900 10897 10895 10895
10842 10849 10854 10860 10865 10870 10875 10880 10886 10889 10887 10888 10885 10886 10889 10891 10893 10894 10894 10894 10895 10895 10896 10898 10898 10899 10900 10901 10901 10901 10902 10902 10901 10899 10898 10895 10894 10890 10886 10884 10881 10878 10876
10832 10838 10844 10850 10855 10860 10865 10870 10874 10867 10863 10866 10871 10874 10876 10880 10882 10883 10884 10884 10885 10885 10884 10884 10887 10887 10889 10890 10889 10889 10888 10888 10886 10884 10880 10878 10876 10873 10870 10867 10863 10859 10856
10823 10829 10834 10839 10845 10848 10854 10855 10855 10855 10856 10856 10858 10861 10864 10867 10868 10870 10871 10872 10873 10873 10872 10874 10875 10876 10877 10877 10876 10874 10874 10872 10870 10868 10866 10861 10858 10855 10852 10846 10842 10837 10831
10813 10820 10824 10828 10830 10835 10837 10840 10842 10846 10848 10848 10851 10852 10855 10857 10858 10859 10861 10861 10860 10860 10860 10861 10861 10861 10862 10863 10862 10860 10858 10855 10853 10850 10848 10844 10840 10835 10830 10826 10820 10813 10807
10803 10808 10813 10818 10819 10821 10824 10828 10833 10834 10837 10840 10842 10844 10846 10847 10846 10846 10847 10847 10846 10845 10846 10846 10845 10845 10845 10844 10842 10840 10837 10835 10832 10828 10824 10822 10817 10812 10807 10800 10796 10790 10783
10794 10798 10802 10808 10809 10810 10811 10814 10820 10822 10825 10827 10830 10831 10832 10831 10830 10831 10832 10831 10830 10831 10831 10830 10829 10828 10826 10824 10822 10818 10815 10813 10809 10805 10800 10796 10791 10786 10783 10777 10771 10764 10757
10786 10789 10792 10796 10800 10801 10802 10803 10806 10810 10813 10816 10818 10818 10818 10818 10818 10817 10817 10817 10816 10815 10814 10814 10812 10809 10807 10804 10800 10797 10793 10789 10785 10779 10773 10768 10762 10757 10753 10746 10742 10736 10730
10779 10782 10783 10785 10788 10789 10793 10795 10794 10797 10800 10802 10803 10804 10804 10803 10804 10804 10803 10803 10802 10799 10798 10796 10794 10791 10786 10782 10778 10774 10770 10765 10759 10753 10747 10741 10733 10726 10722 10716 10711 10706 10702